Flag for Russia Weather past 2 weeks in Yakutsk, Russia

Now
43 °F

Clear.


Feels Like: 39 °F
Forecast: 43 / 59 °F
Wind: 6 mph from Northwest

Location: Jakutsk

Current Time: Sep 3, 2015 at 3:04:35 AM

Latest Report: Sep 3, 2015 at 2:30 AM


Visibility: 10 mi

Pressure: 29.95 "Hg

Humidity: 76%

Dew point: 36 °F

Location of YakutskLocation

Historic Weather in Yakutsk — Graph

°F

Yakutsk temperature yesterday

Maximum temperature yesterday: 55 °F (at 2:00 PM)
Minimum temperature yesterday: 45 °F (at 11:30 PM)
Average temperature yesterday: 51 °F

Past Weeks' High & Low Weather Summary

 TemperatureHumidityPressure
High91 °F (Aug 24, 3:30 PM)94% (Aug 19, 3:30 AM)30.18 "Hg (Aug 19, 3:30 AM)
Low34 °F (Sep 1, 4:00 AM)21% (Aug 24, 4:30 PM)29.74 "Hg (Aug 19, 9:30 AM)
Average60 °F62%29.96 "Hg
* Reported Aug 19 2:00 AM — Sep 3 2:00 AM, Yakutsk, Weather by CustomWeather, © 2015

Note: Actual official high and low records may vary slightly from our data, if they occured in-between our weather recording intervals... More about our weather records

Advertising

Yakutsk weather history for previous 24 hours

 ConditionsComfort  
Time TempWeatherWind HumidityBarometerVisibility
2:00 AM
Thu, Sep 3
43 °FClear.6 mph76%29.95 "Hg10 mi
1:30 AM43 °FClear.6 mph76%29.95 "Hg10 mi
12:30 AM45 °FClear.6 mph76%29.95 "Hg10 mi
12:00 AM45 °FPassing clouds.6 mph76%29.95 "HgN/A
11:30 PM
Wed, Sep 2
45 °FPassing clouds.6 mph76%29.95 "HgN/A
11:00 PM46 °FPassing clouds.8 mph71%29.95 "HgN/A
10:30 PM46 °FPassing clouds.10 mph76%29.95 "HgN/A
10:00 PM46 °FPassing clouds.3 mph76%29.95 "HgN/A
9:30 PM48 °FPassing clouds.10 mph71%29.95 "HgN/A
9:00 PM48 °FPassing clouds.10 mph71%29.95 "HgN/A
8:30 PM48 °FPassing clouds.8 mph71%29.95 "HgN/A
8:00 PM50 °FPassing clouds.8 mph67%29.92 "HgN/A
7:30 PM50 °FPassing clouds.10 mph67%29.92 "HgN/A
7:00 PM52 °FPartly sunny.13 mph62%29.95 "HgN/A
6:30 PM54 °FPartly sunny.13 mph58%29.95 "HgN/A
6:00 PM54 °FPartly sunny.13 mph58%29.92 "HgN/A
5:30 PM55 °FPartly sunny.10 mph59%29.92 "HgN/A
5:00 PM55 °FPartly sunny.13 mph59%29.92 "HgN/A
4:30 PM55 °FPartly sunny.15 mph55%29.89 "HgN/A
4:00 PM55 °FPartly sunny.10 mph55%29.89 "HgN/A
3:30 PM55 °FPartly sunny.13 mph55%29.89 "HgN/A
3:00 PM55 °FPartly sunny.13 mph55%29.89 "HgN/A
2:30 PM55 °FPartly sunny.10 mph55%29.89 "HgN/A
2:00 PM55 °FPartly sunny.13 mph55%29.89 "HgN/A
1:00 PM54 °FPartly sunny.13 mph58%29.89 "HgN/A
12:30 PM54 °FPartly sunny.13 mph63%29.89 "HgN/A
12:00 PM54 °FPartly sunny.10 mph63%29.89 "HgN/A
11:30 AM54 °FPartly sunny.10 mph63%29.89 "HgN/A
11:00 AM54 °FPartly sunny.10 mph63%29.89 "HgN/A
10:30 AM52 °FPartly sunny.8 mph72%29.89 "HgN/A
10:00 AM52 °FPartly sunny.10 mph72%29.89 "HgN/A
9:30 AM52 °FPartly sunny.13 mph72%29.89 "HgN/A
9:00 AM52 °FPartly sunny.8 mph72%29.89 "HgN/A
8:30 AM50 °FPartly sunny.8 mph76%29.89 "HgN/A
8:00 AM50 °FScattered clouds.10 mph76%29.89 "HgN/A
7:30 AM48 °FScattered clouds.13 mph82%29.86 "HgN/A
6:30 AM46 °FSunny.6 mph87%29.86 "Hg10 mi
6:00 AM46 °FSunny.6 mph87%29.86 "Hg10 mi
5:30 AM46 °FPassing clouds.8 mph87%29.83 "HgN/A
5:00 AM48 °FPassing clouds.8 mph82%29.83 "HgN/A
4:30 AM50 °FPassing clouds.10 mph76%29.83 "HgN/A
4:00 AM50 °FPassing clouds.8 mph76%29.83 "HgN/A
3:30 AM50 °FClear.6 mph71%29.83 "Hg10 mi
3:00 AM50 °FClear.8 mph67%29.83 "Hg10 mi
Weather by CustomWeather, © 2015

See weather overviewHow to use our weather pages